EW5998 Weather Reports


Display with metric or nautical units.
time (UTC)temp
F
wind
direction
speed
MPH
gust
MPH
rain 1hr
in
rain 24hr
in
rain mn
in
humidity
%
barometer
mb
20260504034952 44 173 2.0 6.0 0.00 0.00 0.00 75 1006.7
20260504031950 44 165 2.0 5.0 0.00 0.00 0.00 74 1006.8
20260504024950 44 168 2.0 5.0 0.00 0.00 0.00 71 1006.8
20260504021949 46 161 2.0 7.0 0.00 0.00 0.00 70 1007.3
20260504020344 47 166 3.0 7.0 0.00 0.00 0.00 68 1007.2
20260504011949 48 209 4.0 12.0 0.00 0.00 0.00 65 1007.2
20260504011746 49 268 4.0 16.0 0.00 0.00 0.00 61 1006.9
20260504001949 50 247 7.0 18.0 0.00 0.00 0.00 55 1006.8
20260503234949 51 209 4.0 12.0 0.00 0.00 0.00 47 1006.6
20260503233340 52 140 5.0 11.0 0.00 0.00 0.00 44 1006.7
20260503224949 53 223 6.0 14.0 0.00 0.00 0.00 43 1006.7
20260503221948 54 229 6.0 14.0 0.00 0.00 0.00 42 1006.5
20260503214948 54 202 8.0 18.0 0.00 0.00 0.00 43 1006.7
20260503211949 55 221 9.0 17.0 0.00 0.00 0.00 42 1006.7
20260503204950 56 224 7.0 16.0 0.00 0.00 0.00 41 1006.8
20260503201956 55 248 7.0 16.0 0.00 0.00 0.00 38 1007.0
20260503200328 55 206 6.0 15.0 0.00 0.00 0.00 38 1007.3
20260503191942 54 278 8.0 16.0 0.00 0.00 0.00 33 1007.9
20260503184942 54 295 6.0 14.0 0.00 0.00 0.00 33 1008.1
20260503181937 54 258 7.0 19.0 0.00 0.00 0.00 36 1008.6
20260503174936 53 279 7.0 15.0 0.00 0.00 0.00 34 1008.9
20260503171937 53 243 7.0 15.0 0.00 0.00 0.00 38 1009.2
20260503130331 42 274 5.0 11.0 0.00 0.00 0.00 60 1011.9
20260503110323 37 273 2.0 8.0 0.00 0.00 0.00 72 1011.5
20260503071928 38 240 1.0 2.0 0.00 0.00 0.00 70 1011.7
20260503054933 40 233 1.0 5.0 0.00 0.00 0.00 65 1011.9
20260503051927 41 264 1.0 5.0 0.00 0.00 0.00 65 1012.1
20260503044927 42 281 3.0 7.0 0.00 0.00 0.00 65 1012.3
20260503041927 41 236 1.0 4.0 0.00 0.00 0.00 64 1012.5